Date String (YYYY-MM-DD hh:mm:ss) UTC,Instrument flags,Ambient pressure (hPa),Sample flow (lpm),Bypass flow (lpm),Sample temperature (°C),Ambient temperature (°C),ASC tube jacket temperature (°C),LED temperature (°C),Box temperature (°C),Sample RH (%),Span deviation,Mass concentration (μg/m³),Mass concentration (μg/m³),Mass concentration (μg/m³)
DateTimeUTC,F1_M11,P_M11,Q1_M11,Q2_M11,T1_M11,T2_M11,T3_M11,T4_M11,T5_M11,U1_M11,ZSPAN_M11,X0_M11,X2_M11,X1_M11
2021-11-24 07:00:00,,0816.4,5.01,0.00,25.8,24.7,00.0,34.9,27.4,10.9,0000.0,0004.61,0002.74,0001.94
2021-11-24 07:01:00,,0816.4,5.00,0.00,25.8,24.7,00.0,34.9,27.4,10.9,0000.0,0004.94,0002.78,0001.95
2021-11-24 07:02:00,,0816.4,4.99,0.00,25.8,24.7,00.0,34.9,27.4,10.6,0000.0,0005.57,0002.83,0001.97
2021-11-24 07:03:00,,0816.3,5.00,0.00,25.8,24.8,00.0,34.9,27.4,10.6,0000.0,0005.51,0002.85,0001.97
2021-11-24 07:04:00,,0816.3,5.00,0.00,25.8,24.8,00.0,34.9,27.5,10.6,0000.0,0005.35,0002.81,0001.97
2021-11-24 07:05:00,,0816.3,5.00,0.00,25.8,24.8,00.0,34.9,27.5,10.7,0000.0,0005.55,0002.86,0001.98
2021-11-24 07:06:00,,0816.4,5.00,0.00,25.8,24.7,00.0,34.9,27.5,10.7,0000.0,0005.60,0002.90,0001.99
2021-11-24 07:07:00,,0816.4,5.00,0.00,25.8,24.7,00.0,34.9,27.5,10.8,0000.0,0005.90,0002.92,0001.99
2021-11-24 07:08:00,,0816.4,5.00,0.00,25.8,24.7,00.0,34.9,27.5,10.8,0000.0,0006.29,0002.91,0001.99
2021-11-24 07:09:00,,0816.5,4.98,0.00,25.8,24.7,00.0,34.9,27.5,10.8,0000.0,0005.99,0002.81,0001.98
2021-11-24 07:10:00,,0816.4,4.99,0.00,25.8,24.7,00.0,34.9,27.5,10.8,0000.0,0005.97,0002.81,0001.98
2021-11-24 07:11:00,,0816.4,5.00,0.00,25.8,24.7,00.0,34.9,27.4,10.8,0000.0,0006.18,0002.78,0001.98
2021-11-24 07:12:00,,0816.4,5.00,0.00,25.8,24.8,00.0,34.9,27.5,10.8,0000.0,0005.98,0002.78,0001.98
2021-11-24 07:13:00,,0816.4,4.99,0.00,25.8,24.8,00.0,34.9,27.5,10.9,0000.0,0005.71,0002.75,0001.97
2021-11-24 07:14:00,,0816.4,4.99,0.00,25.8,24.8,00.0,34.9,27.5,10.9,0000.0,0005.85,0002.73,0001.98
2021-11-24 07:15:00,,0816.5,4.99,0.00,25.8,24.8,00.0,34.9,27.5,10.9,0000.0,0005.89,0002.74,0001.98
2021-11-24 07:16:00,,0816.6,5.00,0.00,25.8,24.8,00.0,34.9,27.6,10.9,0000.0,0005.66,0002.69,0001.98
2021-11-24 07:17:00,,0816.4,5.01,0.00,25.8,24.8,00.0,34.9,27.5,10.8,0000.0,0005.67,0002.67,0001.96
2021-11-24 07:18:00,,0816.5,4.99,0.00,25.8,24.8,00.0,34.9,27.5,10.8,0000.0,0005.29,0002.61,0001.95
2021-11-24 07:19:00,,0816.4,5.00,0.00,25.8,24.8,00.0,34.9,27.6,10.8,0000.0,0004.86,0002.61,0001.96
2021-11-24 07:20:00,,0816.5,5.00,0.00,25.8,24.9,00.0,34.9,27.6,10.9,0000.0,0005.04,0002.68,0001.99
2021-11-24 07:21:00,,0816.4,5.00,0.00,25.9,24.9,00.0,34.9,27.6,10.8,0000.0,0004.98,0002.63,0001.99
2021-11-24 07:22:00,,0816.5,5.01,0.00,25.9,24.9,00.0,34.9,27.6,10.8,0000.0,0004.78,0002.62,0001.99
2021-11-24 07:23:00,,0816.5,4.99,0.00,25.9,24.8,00.0,34.9,27.6,10.8,0000.0,0004.73,0002.63,0002.00
2021-11-24 07:24:00,,0816.6,5.01,0.00,25.9,24.8,00.0,34.9,27.6,10.9,0000.0,0004.41,0002.61,0002.01
2021-11-24 07:25:00,,0816.6,4.99,0.00,25.9,24.8,00.0,34.9,27.6,10.9,0000.0,0004.30,0002.64,0002.00
2021-11-24 07:26:00,,0816.8,5.01,0.00,25.9,24.9,00.0,34.9,27.6,10.9,0000.0,0004.28,0002.62,0002.00
2021-11-24 07:27:00,,0816.7,4.98,0.00,25.9,24.9,00.0,34.9,27.6,10.9,0000.0,0005.47,0002.65,0002.01
2021-11-24 07:28:00,,0816.6,5.01,0.00,25.9,24.9,00.0,34.9,27.7,10.9,0000.0,0006.24,0002.61,0002.01
2021-11-24 07:29:00,,0816.6,5.00,0.00,25.9,25.0,00.0,34.9,27.8,10.8,0000.0,0006.26,0002.62,0002.01
2021-11-24 07:30:00,,0816.7,5.01,0.00,25.9,25.0,00.0,34.9,27.7,10.8,0000.0,0006.40,0002.62,0002.02
2021-11-24 07:31:00,,0816.9,5.00,0.00,25.9,25.0,00.0,34.9,27.7,10.8,0000.0,0006.53,0002.60,0002.01
2021-11-24 07:32:00,,0816.9,4.99,0.00,25.9,25.0,00.0,34.9,27.7,10.8,0000.0,0006.63,0002.61,0002.01
2021-11-24 07:33:00,,0817.0,5.00,0.00,26.0,25.0,00.0,34.9,27.7,10.8,0000.0,0006.49,0002.60,0002.01
2021-11-24 07:34:00,,0816.8,5.00,0.00,26.0,25.0,00.0,35.0,27.8,10.8,0000.0,0006.38,0002.54,0001.99
2021-11-24 07:35:00,,0817.1,5.00,0.00,26.0,25.1,00.0,35.0,27.8,10.8,0000.0,0006.19,0002.48,0001.97
2021-11-24 07:36:00,,0817.0,4.99,0.00,26.0,25.1,00.0,35.0,27.8,10.7,0000.0,0006.02,0002.42,0001.97
2021-11-24 07:37:00,,0816.8,5.00,0.00,26.0,25.1,00.0,35.0,27.8,10.7,0000.0,0006.02,0002.43,0001.98
2021-11-24 07:38:00,,0816.8,5.00,0.00,26.0,25.1,00.0,35.0,27.8,10.7,0000.0,0005.94,0002.44,0001.98
2021-11-24 07:39:00,,0816.9,4.99,0.00,26.0,25.1,00.0,35.0,27.8,10.7,0000.0,0005.02,0002.50,0001.98
2021-11-24 07:40:00,,0817.1,5.01,0.00,26.0,25.1,00.0,35.0,27.8,10.7,0000.0,0005.21,0002.55,0001.98
2021-11-24 07:41:00,,0817.3,5.00,0.00,26.0,25.1,00.0,35.0,27.8,10.8,0000.0,0005.50,0002.58,0001.98
2021-11-24 07:42:00,,0817.0,5.00,0.00,26.0,25.2,00.0,35.0,27.9,10.8,0000.0,0005.40,0002.57,0001.97
2021-11-24 07:43:00,,0817.3,4.99,0.00,26.0,25.2,00.0,35.0,27.9,10.7,0000.0,0005.27,0002.58,0001.97
2021-11-24 07:44:00,,0817.2,5.00,0.00,26.0,25.2,00.0,35.0,27.9,10.7,0000.0,0005.58,0002.67,0001.98
2021-11-24 07:45:00,,0816.9,5.01,0.00,26.0,25.2,00.0,35.0,27.9,10.7,0000.0,0005.68,0002.72,0001.99
2021-11-24 07:46:00,,0816.8,5.00,0.00,26.0,25.2,00.0,35.0,27.8,10.7,0000.0,0005.91,0002.77,0002.01
2021-11-24 07:47:00,,0816.9,5.00,0.00,26.0,25.2,00.0,35.0,27.8,10.7,0000.0,0006.05,0002.80,0002.01
2021-11-24 07:48:00,,0816.9,5.01,0.00,26.0,25.2,00.0,35.0,27.8,10.6,0000.0,0006.27,0002.83,0002.01
2021-11-24 07:49:00,,0816.9,5.01,0.00,26.0,25.2,00.0,35.0,27.8,10.6,0000.0,0005.65,0002.78,0002.00
2021-11-24 07:50:00,,0816.9,5.00,0.00,26.1,25.1,00.0,35.0,27.8,10.6,0000.0,0005.22,0002.74,0002.00
2021-11-24 07:51:00,,0816.9,4.99,0.00,26.1,25.2,00.0,35.0,27.8,10.6,0000.0,0005.27,0002.75,0002.00
2021-11-24 07:52:00,,0816.9,5.02,0.00,26.1,25.2,00.0,35.0,27.9,10.6,0000.0,0004.88,0002.73,0002.00
2021-11-24 07:53:00,,0816.8,4.99,0.00,26.1,25.2,00.0,35.0,27.8,10.6,0000.0,0004.75,0002.74,0002.00
2021-11-24 07:54:00,,0816.9,5.02,0.00,26.1,25.2,00.0,35.0,27.9,10.6,0000.0,0004.70,0002.72,0002.01
2021-11-24 07:55:00,,0816.9,4.99,0.00,26.1,25.2,00.0,35.1,27.9,10.6,0000.0,0004.41,0002.63,0001.99
2021-11-24 07:56:00,,0816.9,5.00,0.00,26.1,25.2,00.0,35.1,27.9,10.6,0000.0,0004.32,0002.57,0001.98
2021-11-24 07:57:00,,0816.8,4.99,0.00,26.1,25.2,00.0,35.1,27.9,10.6,0000.0,0004.14,0002.56,0001.98
2021-11-24 07:58:00,,0816.9,5.00,0.00,26.1,25.2,00.0,35.1,27.9,10.6,0000.0,0004.25,0002.62,0001.98
2021-11-24 07:59:00,,0816.9,5.00,0.00,26.1,25.2,00.0,35.1,27.9,10.6,0000.0,0004.17,0002.61,0001.97
